{"data":{"norad_id":58986,"epoch":"2026-05-25T03:26:35.446848Z","epoch_age_seconds":62627,"freshness":"FRESH","line1":"1 58986U 24031X   26145.14346582  .00001502  00000+0  62856-4 0  9995","line2":"2 58986  53.1615 301.9220 0001261  98.7355 261.3788 15.30184948128215","mean_motion":15.30184948,"eccentricity":0.0001261,"inclination_deg":53.1615,"raan_deg":301.922,"arg_perigee_deg":98.7355,"mean_anomaly_deg":261.3788,"bstar":6.2856e-5,"rev_number":12821,"period_min":94.106271394326,"perigee_km":474.39579898333,"apogee_km":476.12422570984,"semimajor_km":6853.3970123466,"source":"CELESTRAK","updated_at":"2026-05-25T13:38:18.797348Z"}}